• Em Portugal
  • Lista de países
  • Para 7 dias
  • Temperatura da água
  • Mapas de satélite
  • Mapa do tempo
  • Widgets de tempo
  • user-avatar
    Iniciar Sessão

    Previsão horária em Shalashino

    Hoje, 14 Novembro, Quarta-feira

    Tempo Temperatura Precipitação Vento Pressão Humidade
    00:00 -5°C° 0.1 mm 8 m/s 753 mmHg 58%
    01:00 -5°C° 0.1 mm 8 m/s 752 mmHg 59%
    02:00 -4°C° 0.1 mm 7 m/s 752 mmHg 61%
    03:00 -4°C° 0.5 mm 7 m/s 751 mmHg 66%
    04:00 -4°C° 0.5 mm 7 m/s 751 mmHg 71%
    05:00 -6°C° 0.5 mm 7 m/s 750 mmHg 76%
    06:00 -5°C° 0.7 mm 6 m/s 750 mmHg 78%
    07:00 -5°C° 0.7 mm 6 m/s 749 mmHg 81%
    08:00 -5°C° 0.7 mm 6 m/s 749 mmHg 83%
    09:00 -5°C° 0.8 mm 6 m/s 749 mmHg 85%
    10:00 -5°C° 0.8 mm 6 m/s 749 mmHg 87%
    11:00 -5°C° 0.8 mm 6 m/s 749 mmHg 89%
    12:00 -5°C° 0.6 mm 5 m/s 749 mmHg 90%
    13:00 -5°C° 0.6 mm 5 m/s 749 mmHg 90%
    14:00 -4°C° 0.6 mm 4 m/s 749 mmHg 91%
    15:00 -4°C° 0.4 mm 4 m/s 749 mmHg 92%
    16:00 -4°C° 0.4 mm 3 m/s 749 mmHg 93%
    17:00 -4°C° 0.4 mm 3 m/s 749 mmHg 93%
    18:00 -3°C° 0.2 mm 2 m/s 749 mmHg 94%
    19:00 -3°C° 0.2 mm 2 m/s 750 mmHg 94%
    20:00 -1°C° 0.2 mm 1 m/s 750 mmHg 95%
    21:00 -1°C° 0.1 mm 1 m/s 750 mmHg 95%
    22:00 -1°C° 0.1 mm 1 m/s 751 mmHg 95%
    23:00 -1°C° 0.1 mm 1 m/s 751 mmHg 95%

    Amanhã, 15 Novembro, Quinta-feira

    Tempo Temperatura Precipitação Vento Pressão Humidade
    00:00 -1°C° 0 mm 1 m/s 752 mmHg 95%
    01:00 -2°C° 0 mm 1 m/s 752 mmHg 95%
    02:00 -2°C° 0 mm 1 m/s 753 mmHg 95%
    03:00 -2°C° 0 mm 1 m/s 753 mmHg 95%
    04:00 -2°C° 0 mm 1 m/s 753 mmHg 95%
    05:00 -2°C° 0 mm 1 m/s 754 mmHg 95%
    06:00 -2°C° 0 mm 1 m/s 754 mmHg 95%
    07:00 -2°C° 0 mm 1 m/s 755 mmHg 95%
    08:00 -2°C° 0 mm 1 m/s 755 mmHg 95%
    09:00 -1°C° 0 mm 1 m/s 756 mmHg 94%
    10:00 0°C° 0 mm 1 m/s 756 mmHg 93%
    11:00 0°C° 0 mm 1 m/s 756 mmHg 93%
    12:00 +1°C° 0.1 mm 1 m/s 757 mmHg 93%
    13:00 +1°C° 0.1 mm 1 m/s 757 mmHg 94%
    14:00 +1°C° 0.1 mm 1 m/s 757 mmHg 94%
    15:00 0°C° 0 mm 1 m/s 758 mmHg 95%
    16:00 0°C° 0 mm 1 m/s 758 mmHg 95%
    17:00 0°C° 0 mm 1 m/s 758 mmHg 96%
    18:00 0°C° 0.1 mm 1 m/s 759 mmHg 96%
    19:00 0°C° 0.1 mm 1 m/s 759 mmHg 96%
    20:00 0°C° 0.1 mm 1 m/s 759 mmHg 96%
    21:00 0°C° 0 mm 1 m/s 760 mmHg 96%
    22:00 0°C° 0 mm 1 m/s 760 mmHg 97%
    23:00 +1°C° 0 mm 1 m/s 761 mmHg 97%

    Depois de amanhã, 16 Novembro, Sexta-feira

    Tempo Temperatura Precipitação Vento Pressão Humidade
    00:00 -1°C° 0 mm 2 m/s 761 mmHg 97%
    01:00 -1°C° 0 mm 2 m/s 761 mmHg 97%
    02:00 -1°C° 0 mm 2 m/s 762 mmHg 97%
    03:00 -2°C° 0 mm 2 m/s 762 mmHg 97%
    04:00 -2°C° 0 mm 2 m/s 762 mmHg 96%
    05:00 -2°C° 0 mm 2 m/s 762 mmHg 96%
    06:00 -2°C° 0 mm 2 m/s 763 mmHg 96%
    07:00 -2°C° 0 mm 2 m/s 763 mmHg 96%
    08:00 -2°C° 0 mm 2 m/s 764 mmHg 95%
    09:00 0°C° 0 mm 1 m/s 764 mmHg 95%
    10:00 +1°C° 0 mm 1 m/s 764 mmHg 94%
    11:00 +1°C° 0 mm 1 m/s 764 mmHg 94%
    12:00 +2°C° 0 mm 1 m/s 764 mmHg 94%
    13:00 +2°C° 0 mm 1 m/s 764 mmHg 94%
    14:00 +2°C° 0 mm 1 m/s 765 mmHg 94%
    15:00 +1°C° 0 mm 1 m/s 765 mmHg 93%
    16:00 0°C° 0 mm 1 m/s 765 mmHg 92%
    17:00 -1°C° 0 mm 1 m/s 765 mmHg 91%
    18:00 -1°C° 0 mm 1 m/s 765 mmHg 91%
    19:00 -2°C° 0 mm 1 m/s 765 mmHg 90%
    20:00 -2°C° 0 mm 1 m/s 765 mmHg 90%
    21:00 -2°C° 0 mm 1 m/s 765 mmHg 89%
    22:00 -2°C° 0 mm 1 m/s 765 mmHg 88%
    23:00 -3°C° 0 mm 0 m/s 765 mmHg 87%

    17 Novembro, Sábado

    Tempo Temperatura Precipitação Vento Pressão Humidade
    00:00 -4°C° 0 mm 0 m/s 765 mmHg 87%
    01:00 -4°C° 0 mm 0 m/s 765 mmHg 86%
    02:00 -4°C° 0 mm 0 m/s 765 mmHg 86%
    03:00 -3°C° 0 mm 1 m/s 765 mmHg 86%
    04:00 -3°C° 0 mm 1 m/s 764 mmHg 86%
    05:00 -3°C° 0 mm 1 m/s 764 mmHg 86%
    06:00 -3°C° 0 mm 1 m/s 764 mmHg 86%
    07:00 -3°C° 0 mm 1 m/s 764 mmHg 87%
    08:00 -2°C° 0 mm 1 m/s 764 mmHg 87%
    09:00 -3°C° 0 mm 2 m/s 764 mmHg 87%
    10:00 -2°C° 0 mm 2 m/s 763 mmHg 87%
    11:00 -1°C° 0 mm 2 m/s 763 mmHg 88%
    12:00 -1°C° 0 mm 2 m/s 762 mmHg 89%
    13:00 -1°C° 0 mm 3 m/s 762 mmHg 91%
    14:00 0°C° 0 mm 3 m/s 761 mmHg 93%
    15:00 0°C° 0 mm 3 m/s 761 mmHg 93%
    16:00 0°C° 0 mm 3 m/s 760 mmHg 94%
    17:00 0°C° 0 mm 3 m/s 760 mmHg 94%
    18:00 0°C° 0 mm 3 m/s 759 mmHg 95%
    19:00 0°C° 0 mm 3 m/s 758 mmHg 95%
    20:00 0°C° 0 mm 3 m/s 758 mmHg 95%
    21:00 0°C° 0 mm 3 m/s 757 mmHg 96%
    22:00 0°C° 0 mm 3 m/s 757 mmHg 97%
    23:00 -1°C° 0 mm 4 m/s 756 mmHg 98%

    18 Novembro, Domingo

    Tempo Temperatura Precipitação Vento Pressão Humidade
    00:00 -1°C° 0 mm 4 m/s 755 mmHg 98%
    01:00 -1°C° 0 mm 4 m/s 755 mmHg 98%
    02:00 0°C° 0 mm 4 m/s 754 mmHg 98%
    03:00 0°C° 0 mm 4 m/s 753 mmHg 98%
    04:00 0°C° 0 mm 4 m/s 752 mmHg 98%
    05:00 0°C° 0 mm 4 m/s 752 mmHg 97%
    06:00 0°C° 0.1 mm 4 m/s 751 mmHg 97%
    07:00 -1°C° 0.1 mm 4 m/s 751 mmHg 97%
    08:00 0°C° 0.1 mm 3 m/s 751 mmHg 96%
    09:00 -1°C° 0 mm 4 m/s 750 mmHg 97%
    10:00 0°C° 0 mm 4 m/s 750 mmHg 97%
    11:00 0°C° 0 mm 4 m/s 750 mmHg 97%
    12:00 0°C° 0.1 mm 4 m/s 750 mmHg 97%
    13:00 0°C° 0.1 mm 4 m/s 750 mmHg 96%
    14:00 0°C° 0.1 mm 5 m/s 749 mmHg 96%
    15:00 0°C° 0.1 mm 5 m/s 749 mmHg 94%
    16:00 0°C° 0.1 mm 5 m/s 749 mmHg 93%
    17:00 0°C° 0.1 mm 5 m/s 749 mmHg 91%
    18:00 -1°C° 0.1 mm 5 m/s 749 mmHg 91%
    19:00 -1°C° 0.1 mm 5 m/s 749 mmHg 90%
    20:00 -1°C° 0.1 mm 5 m/s 749 mmHg 89%
    21:00 -1°C° 0.2 mm 5 m/s 749 mmHg 89%
    22:00 -2°C° 0.2 mm 6 m/s 749 mmHg 89%
    23:00 -2°C° 0.2 mm 6 m/s 749 mmHg 88%

    19 Novembro, Segunda-feira

    Tempo Temperatura Precipitação Vento Pressão Humidade
    00:00 -2°C° 0.1 mm 6 m/s 749 mmHg 88%
    01:00 -2°C° 0.1 mm 6 m/s 749 mmHg 88%
    02:00 -2°C° 0.1 mm 7 m/s 750 mmHg 87%
    03:00 -2°C° 0.1 mm 7 m/s 750 mmHg 87%
    04:00 -2°C° 0.1 mm 7 m/s 750 mmHg 88%
    05:00 -2°C° 0.1 mm 7 m/s 750 mmHg 88%
    06:00 -2°C° 0.1 mm 6 m/s 750 mmHg 88%
    07:00 -2°C° 0.1 mm 6 m/s 751 mmHg 88%
    08:00 -2°C° 0.1 mm 6 m/s 751 mmHg 88%
    09:00 -2°C° 0 mm 6 m/s 751 mmHg 88%
    10:00 -1°C° 0 mm 6 m/s 752 mmHg 88%
    11:00 0°C° 0 mm 5 m/s 752 mmHg 88%
    12:00 0°C° 0.1 mm 5 m/s 752 mmHg 87%
    13:00 0°C° 0.1 mm 5 m/s 752 mmHg 87%
    14:00 0°C° 0.1 mm 5 m/s 753 mmHg 86%
    15:00 -1°C° 0.1 mm 5 m/s 753 mmHg 86%
    16:00 -1°C° 0.1 mm 5 m/s 753 mmHg 87%
    17:00 -1°C° 0.1 mm 5 m/s 753 mmHg 87%
    18:00 -2°C° 0.1 mm 5 m/s 754 mmHg 86%
    19:00 -2°C° 0.1 mm 5 m/s 754 mmHg 86%
    20:00 -3°C° 0.1 mm 6 m/s 754 mmHg 85%
    21:00 -4°C° 0 mm 5 m/s 754 mmHg 85%
    22:00 -5°C° 0 mm 5 m/s 755 mmHg 85%
    23:00 -4°C° 0 mm 4 m/s 755 mmHg 85%
    Mostrar mais